GXA202 KAUS-KELP

Flight info

Callsign GXA202
Flight time 1h 26m
Altitude 34000
Route MUCKY3 MUCKY JCT TXSAS BEAHR3
Aircraft A320/M-SDE3FGHIRWY/LB1

Departure

Time 2026-04-25 18:08
Airport Austin Bergstrom International Airport (KAUS)

Arrival

Time 2026-04-25 19:34
Airport El Paso International Airport (KELP)
Time Latitude Longitude Altitude Speed Heading
2026-04-25 17:18 30.19603 -97.67083 528 ft 0 kts 268°
2026-04-25 17:53 30.19603 -97.67084 527 ft 1 kts 268°
2026-04-25 17:53 30.19613 -97.67118 527 ft 5 kts 313°
2026-04-25 17:54 30.19639 -97.67130 527 ft 4 kts 340°
2026-04-25 17:54 30.19662 -97.67136 527 ft 4 kts 352°
2026-04-25 17:54 30.19699 -97.67138 527 ft 7 kts 358°
2026-04-25 17:54 30.19727 -97.67169 527 ft 6 kts 285°
2026-04-25 17:55 30.19727 -97.67217 527 ft 5 kts 268°
2026-04-25 17:55 30.19727 -97.67243 527 ft 0 kts 268°
2026-04-25 17:58 30.19729 -97.67295 527 ft 8 kts 286°
2026-04-25 17:58 30.19769 -97.67325 527 ft 7 kts 349°
2026-04-25 17:58 30.19820 -97.67328 527 ft 7 kts
2026-04-25 17:58 30.19876 -97.67320 527 ft 9 kts 30°
2026-04-25 17:59 30.19895 -97.67254 527 ft 10 kts 86°
2026-04-25 17:59 30.19897 -97.67161 527 ft 14 kts 89°
2026-04-25 17:59 30.19898 -97.67046 527 ft 15 kts 89°
2026-04-25 17:59 30.19900 -97.66921 527 ft 16 kts 88°
2026-04-25 18:00 30.19904 -97.66786 527 ft 18 kts 89°
2026-04-25 18:00 30.19906 -97.66635 527 ft 20 kts 87°
2026-04-25 18:00 30.19911 -97.66469 527 ft 22 kts 89°
2026-04-25 18:00 30.19913 -97.66287 527 ft 24 kts 88°
2026-04-25 18:01 30.19917 -97.66133 527 ft 14 kts 88°
2026-04-25 18:01 30.19927 -97.66018 527 ft 14 kts 60°
2026-04-25 18:01 30.20011 -97.65989 527 ft 13 kts 357°
2026-04-25 18:01 30.20094 -97.65993 527 ft 11 kts 358°
2026-04-25 18:02 30.20169 -97.65995 527 ft 10 kts 359°
2026-04-25 18:02 30.20236 -97.65997 528 ft 9 kts 358°
2026-04-25 18:02 30.20297 -97.65999 527 ft 8 kts 358°
2026-04-25 18:02 30.20348 -97.65990 527 ft 7 kts 29°
2026-04-25 18:03 30.20368 -97.65948 528 ft 6 kts 83°
2026-04-25 18:03 30.20370 -97.65908 528 ft 4 kts 87°
2026-04-25 18:03 30.20370 -97.65903 528 ft 0 kts 87°
2026-04-25 18:06 30.20371 -97.65877 528 ft 11 kts 88°
2026-04-25 18:06 30.20343 -97.65797 529 ft 12 kts 153°
2026-04-25 18:07 30.20252 -97.65788 527 ft 15 kts 179°
2026-04-25 18:07 30.20012 -97.65782 526 ft 68 kts 178°
2026-04-25 18:07 30.19304 -97.65763 529 ft 132 kts 179°
2026-04-25 18:07 30.18330 -97.65735 1057 ft 135 kts 179°
2026-04-25 18:08 30.17388 -97.65664 1669 ft 136 kts 175°
2026-04-25 18:08 30.16414 -97.65559 2250 ft 145 kts 172°
2026-04-25 18:08 30.15341 -97.65440 2704 ft 163 kts 180°
2026-04-25 18:08 30.14186 -97.65750 3112 ft 184 kts 207°
2026-04-25 18:09 30.13195 -97.66815 3420 ft 211 kts 234°
2026-04-25 18:09 30.12666 -97.68529 3703 ft 245 kts 262°
2026-04-25 18:09 30.12815 -97.70607 4216 ft 270 kts 280°
2026-04-25 18:09 30.12974 -97.71323 4523 ft 272 kts 283°
2026-04-25 18:10 30.14032 -97.74855 5885 ft 284 kts 288°
2026-04-25 18:10 30.14504 -97.76268 6476 ft 285 kts 289°
2026-04-25 18:10 30.15449 -97.79164 7557 ft 290 kts 288°
2026-04-25 18:10 30.15877 -97.80634 8139 ft 291 kts 287°
2026-04-25 18:11 30.16663 -97.83587 9402 ft 289 kts 285°
2026-04-25 18:11 30.17031 -97.85095 10051 ft 288 kts 285°
2026-04-25 18:11 30.17589 -97.87408 10397 ft 310 kts 285°
2026-04-25 18:11 30.18188 -97.89883 10782 ft 327 kts 285°
2026-04-25 18:12 30.18812 -97.92434 11486 ft 332 kts 285°
2026-04-25 18:12 30.19442 -97.94983 12248 ft 335 kts 285°
2026-04-25 18:12 30.20086 -97.97580 13056 ft 337 kts 285°
2026-04-25 18:12 30.20737 -98.00200 13850 ft 340 kts 285°
2026-04-25 18:13 30.21391 -98.02830 14593 ft 341 kts 285°
2026-04-25 18:13 30.22048 -98.05477 15321 ft 344 kts 285°
2026-04-25 18:13 30.22708 -98.08147 16039 ft 346 kts 285°
2026-04-25 18:14 30.23712 -98.12219 17134 ft 349 kts 285°
2026-04-25 18:14 30.24134 -98.13931 17577 ft 351 kts 285°
2026-04-25 18:14 30.24807 -98.16651 18266 ft 353 kts 285°
2026-04-25 18:14 30.25486 -98.19387 18866 ft 355 kts 285°
2026-04-25 18:15 30.26167 -98.22139 19488 ft 357 kts 285°
2026-04-25 18:15 30.26850 -98.24906 20126 ft 359 kts 284°
2026-04-25 18:15 30.27535 -98.27689 20765 ft 360 kts 284°
2026-04-25 18:15 30.28222 -98.30485 21400 ft 362 kts 284°
2026-04-25 18:16 30.28912 -98.33296 22033 ft 364 kts 284°
2026-04-25 18:16 30.29597 -98.36089 22633 ft 366 kts 284°
2026-04-25 18:16 30.31000 -98.41802 23738 ft 371 kts 285°
2026-04-25 18:17 30.31705 -98.44677 24225 ft 372 kts 285°
2026-04-25 18:17 30.32415 -98.47565 24708 ft 373 kts 285°
2026-04-25 18:17 30.33126 -98.50458 25177 ft 374 kts 285°
2026-04-25 18:17 30.33834 -98.53362 25632 ft 375 kts 284°
2026-04-25 18:18 30.34544 -98.56284 26077 ft 376 kts 285°
2026-04-25 18:18 30.35253 -98.59209 26513 ft 378 kts 284°
2026-04-25 18:18 30.35956 -98.62107 26943 ft 379 kts 285°
2026-04-25 18:18 30.36670 -98.65046 27375 ft 380 kts 285°
2026-04-25 18:19 30.37384 -98.67996 27801 ft 381 kts 285°
2026-04-25 18:19 30.38101 -98.70964 28197 ft 383 kts 285°
2026-04-25 18:19 30.38820 -98.73934 28595 ft 384 kts 285°
2026-04-25 18:19 30.39543 -98.76917 28991 ft 385 kts 285°
2026-04-25 18:20 30.40267 -98.79911 29367 ft 386 kts 285°
2026-04-25 18:20 30.40991 -98.82914 29731 ft 388 kts 285°
2026-04-25 18:20 30.41717 -98.85929 30061 ft 389 kts 285°
2026-04-25 18:20 30.42404 -98.88962 30350 ft 390 kts 283°
2026-04-25 18:21 30.43021 -98.92021 30641 ft 391 kts 282°
2026-04-25 18:21 30.43597 -98.95106 30917 ft 392 kts 282°
2026-04-25 18:21 30.44157 -98.98199 31187 ft 392 kts 282°
2026-04-25 18:21 30.44718 -99.01291 31500 ft 392 kts 282°
2026-04-25 18:22 30.45282 -99.04337 31877 ft 389 kts 282°
2026-04-25 18:22 30.45670 -99.06407 32137 ft 388 kts 282°
2026-04-25 18:22 30.46436 -99.10450 32645 ft 385 kts 282°
2026-04-25 18:22 30.47016 -99.13476 33023 ft 384 kts 282°
2026-04-25 18:23 30.47594 -99.16490 33407 ft 382 kts 282°
2026-04-25 18:23 30.48167 -99.19486 33727 ft 381 kts 282°
2026-04-25 18:23 30.48734 -99.22464 33786 ft 374 kts 282°
2026-04-25 18:24 30.49833 -99.28281 33785 ft 367 kts 282°
2026-04-25 18:24 30.50922 -99.34060 33783 ft 366 kts 282°
2026-04-25 18:25 30.51995 -99.39795 33796 ft 366 kts 282°
2026-04-25 18:25 30.53074 -99.45564 33815 ft 366 kts 282°
2026-04-25 18:26 30.54153 -99.51337 33832 ft 366 kts 282°
2026-04-25 18:26 30.55234 -99.57113 33849 ft 366 kts 282°
2026-04-25 18:27 30.56310 -99.62887 33863 ft 366 kts 282°
2026-04-25 18:27 30.57387 -99.68670 33878 ft 366 kts 282°
2026-04-25 18:28 30.58455 -99.74447 33880 ft 366 kts 282°
2026-04-25 18:28 30.59523 -99.80229 33882 ft 366 kts 282°
2026-04-25 18:29 30.61218 -99.88841 33857 ft 366 kts 283°
2026-04-25 18:30 30.63587 -100.00341 33822 ft 366 kts 283°
2026-04-25 18:30 30.64755 -100.06091 33803 ft 366 kts 283°
2026-04-25 18:31 30.65918 -100.11824 33793 ft 366 kts 283°
2026-04-25 18:31 30.67079 -100.17583 33785 ft 366 kts 283°
2026-04-25 18:32 30.68234 -100.23338 33786 ft 366 kts 283°
2026-04-25 18:32 30.69390 -100.29103 33805 ft 366 kts 283°
2026-04-25 18:33 30.70540 -100.34870 33829 ft 366 kts 283°
2026-04-25 18:33 30.71687 -100.40641 33847 ft 366 kts 283°
2026-04-25 18:34 30.72836 -100.46410 33863 ft 366 kts 283°
2026-04-25 18:34 30.73975 -100.52142 33880 ft 366 kts 283°
2026-04-25 18:35 30.75118 -100.57912 33887 ft 366 kts 283°
2026-04-25 18:35 30.76259 -100.63684 33886 ft 366 kts 283°
2026-04-25 18:36 30.77397 -100.69460 33881 ft 366 kts 282°
2026-04-25 18:36 30.78531 -100.75232 33868 ft 366 kts 283°
2026-04-25 18:37 30.79668 -100.81014 33853 ft 366 kts 282°
2026-04-25 18:37 30.80797 -100.86789 33835 ft 366 kts 282°
2026-04-25 18:38 30.81922 -100.92566 33844 ft 366 kts 282°
2026-04-25 18:38 30.83045 -100.98349 33857 ft 366 kts 282°
2026-04-25 18:39 30.84169 -101.04133 33871 ft 366 kts 282°
2026-04-25 18:39 30.85287 -101.09874 33884 ft 366 kts 282°
2026-04-25 18:40 30.86401 -101.15655 33884 ft 366 kts 282°
2026-04-25 18:40 30.87517 -101.21441 33883 ft 366 kts 282°
2026-04-25 18:41 30.88628 -101.27227 33874 ft 366 kts 282°
2026-04-25 18:41 30.89736 -101.33009 33861 ft 366 kts 282°
2026-04-25 18:42 30.90477 -101.36880 33851 ft 366 kts 282°
2026-04-25 18:42 30.91948 -101.44585 33826 ft 366 kts 282°
2026-04-25 18:43 30.93052 -101.50364 33806 ft 366 kts 282°
2026-04-25 18:43 30.94152 -101.56149 33790 ft 365 kts 282°
2026-04-25 18:44 30.95235 -101.61893 33783 ft 365 kts 282°
2026-04-25 18:44 30.96324 -101.67675 33782 ft 365 kts 282°
2026-04-25 18:45 30.97409 -101.73453 33778 ft 365 kts 282°
2026-04-25 18:45 30.98501 -101.79235 33778 ft 365 kts 282°
2026-04-25 18:46 30.99582 -101.85012 33774 ft 365 kts 282°
2026-04-25 18:46 31.00660 -101.90796 33776 ft 365 kts 282°
2026-04-25 18:47 31.01738 -101.96576 33772 ft 365 kts 282°
2026-04-25 18:47 31.02812 -102.02356 33771 ft 364 kts 282°
2026-04-25 18:48 31.03880 -102.08129 33767 ft 364 kts 282°
2026-04-25 18:48 31.04949 -102.13901 33765 ft 364 kts 282°
2026-04-25 18:49 31.06014 -102.19672 33766 ft 364 kts 281°
2026-04-25 18:49 31.07074 -102.25446 33764 ft 364 kts 281°
2026-04-25 18:50 31.08127 -102.31184 33763 ft 363 kts 281°
2026-04-25 18:50 31.09184 -102.36947 33765 ft 363 kts 281°
2026-04-25 18:51 31.09888 -102.40799 33765 ft 363 kts 281°
2026-04-25 18:51 31.11277 -102.48460 33758 ft 362 kts 281°
2026-04-25 18:52 31.12318 -102.54215 33756 ft 362 kts 281°
2026-04-25 18:52 31.13361 -102.59967 33765 ft 362 kts 281°
2026-04-25 18:53 31.14403 -102.65714 33782 ft 362 kts 281°
2026-04-25 18:53 31.15441 -102.71461 33798 ft 362 kts 281°
2026-04-25 18:54 31.16986 -102.80084 33812 ft 362 kts 281°
2026-04-25 18:55 31.18006 -102.85838 33625 ft 362 kts 281°
2026-04-25 18:55 31.18519 -102.88720 33360 ft 362 kts 281°
2026-04-25 18:55 31.19027 -102.91563 33101 ft 363 kts 281°
2026-04-25 18:55 31.19546 -102.94453 32835 ft 364 kts 281°
2026-04-25 18:56 31.20065 -102.97349 32573 ft 365 kts 281°
2026-04-25 18:56 31.20585 -103.00256 32313 ft 366 kts 281°
2026-04-25 18:56 31.21100 -103.03163 32054 ft 365 kts 281°
2026-04-25 18:56 31.21610 -103.06069 31796 ft 364 kts 280°
2026-04-25 18:57 31.22119 -103.08963 31540 ft 363 kts 281°
2026-04-25 18:57 31.22631 -103.11844 31284 ft 362 kts 280°
2026-04-25 18:57 31.23138 -103.14721 31052 ft 360 kts 280°
2026-04-25 18:58 31.24140 -103.20444 30596 ft 358 kts 280°
2026-04-25 18:58 31.25134 -103.26126 30145 ft 356 kts 280°
2026-04-25 18:58 31.25632 -103.28958 29919 ft 355 kts 280°
2026-04-25 18:59 31.26622 -103.34592 29417 ft 353 kts 280°
2026-04-25 18:59 31.27601 -103.40201 28892 ft 351 kts 280°
2026-04-25 19:00 31.28567 -103.45753 28380 ft 350 kts 280°
2026-04-25 19:00 31.29045 -103.48540 28127 ft 349 kts 280°
2026-04-25 19:01 31.29847 -103.53198 27698 ft 348 kts 280°
2026-04-25 19:01 31.30326 -103.55974 27437 ft 348 kts 280°
2026-04-25 19:01 31.30806 -103.58742 27180 ft 347 kts 280°
2026-04-25 19:01 31.31279 -103.61472 26925 ft 346 kts 280°
2026-04-25 19:02 31.32226 -103.66993 26412 ft 345 kts 280°
2026-04-25 19:02 31.32698 -103.69745 26155 ft 345 kts 280°
2026-04-25 19:02 31.33166 -103.72490 25906 ft 344 kts 280°
2026-04-25 19:03 31.33949 -103.77050 25498 ft 343 kts 280°
2026-04-25 19:03 31.34576 -103.80715 25166 ft 343 kts 280°
2026-04-25 19:03 31.35041 -103.83442 24918 ft 342 kts 280°
2026-04-25 19:04 31.35969 -103.88899 24439 ft 341 kts 280°
2026-04-25 19:04 31.36430 -103.91619 24201 ft 341 kts 280°
2026-04-25 19:05 31.37353 -103.97058 23754 ft 340 kts 280°
2026-04-25 19:05 31.38277 -104.02481 23300 ft 339 kts 280°
2026-04-25 19:05 31.38736 -104.05183 23045 ft 339 kts 280°
2026-04-25 19:06 31.39183 -104.07847 22780 ft 338 kts 279°
2026-04-25 19:06 31.40082 -104.13230 22256 ft 336 kts 279°
2026-04-25 19:06 31.40528 -104.15907 22002 ft 335 kts 279°
2026-04-25 19:07 31.41423 -104.21240 21498 ft 333 kts 279°
2026-04-25 19:07 31.41872 -104.23920 21248 ft 339 kts 279°
2026-04-25 19:08 31.42781 -104.29388 20750 ft 343 kts 279°
2026-04-25 19:08 31.43237 -104.32129 20492 ft 342 kts 279°
2026-04-25 19:09 31.44592 -104.40306 19786 ft 340 kts 279°
2026-04-25 19:09 31.44891 -104.42106 19632 ft 339 kts 279°
2026-04-25 19:09 31.45772 -104.48459 19087 ft 337 kts 275°
2026-04-25 19:10 31.46043 -104.51184 18853 ft 337 kts 275°
2026-04-25 19:10 31.46297 -104.53911 18620 ft 336 kts 274°
2026-04-25 19:10 31.46552 -104.56632 18393 ft 336 kts 275°
2026-04-25 19:10 31.46817 -104.59350 18165 ft 336 kts 275°
2026-04-25 19:11 31.47086 -104.62029 17922 ft 335 kts 275°
2026-04-25 19:11 31.47366 -104.64741 17661 ft 334 kts 275°
2026-04-25 19:11 31.47649 -104.67440 17402 ft 333 kts 275°
2026-04-25 19:11 31.47935 -104.70126 17148 ft 332 kts 275°
2026-04-25 19:12 31.48220 -104.72810 16897 ft 331 kts 275°
2026-04-25 19:12 31.48501 -104.75485 16641 ft 330 kts 275°
2026-04-25 19:12 31.48778 -104.78151 16389 ft 329 kts 275°
2026-04-25 19:12 31.49051 -104.80812 16139 ft 328 kts 275°
2026-04-25 19:13 31.49319 -104.83462 15893 ft 327 kts 275°
2026-04-25 19:13 31.49582 -104.86075 15654 ft 326 kts 275°
2026-04-25 19:13 31.49850 -104.88714 15406 ft 326 kts 275°
2026-04-25 19:13 31.50120 -104.91344 15178 ft 325 kts 275°
2026-04-25 19:14 31.50389 -104.93972 14927 ft 324 kts 275°
2026-04-25 19:14 31.50567 -104.95707 14772 ft 324 kts 275°
2026-04-25 19:14 31.50924 -104.99204 14457 ft 322 kts 275°
2026-04-25 19:14 31.51190 -105.01807 14227 ft 322 kts 275°
2026-04-25 19:15 31.51454 -105.04401 13992 ft 317 kts 275°
2026-04-25 19:15 31.51712 -105.06938 13762 ft 310 kts 275°
2026-04-25 19:15 31.51965 -105.09430 13522 ft 307 kts 275°
2026-04-25 19:15 31.52214 -105.11907 13266 ft 305 kts 275°
2026-04-25 19:16 31.52460 -105.14376 13012 ft 304 kts 275°
2026-04-25 19:16 31.52702 -105.16831 12756 ft 303 kts 275°
2026-04-25 19:16 31.52942 -105.19253 12507 ft 303 kts 275°
2026-04-25 19:16 31.53195 -105.21774 12253 ft 310 kts 275°
2026-04-25 19:17 31.53445 -105.24265 11998 ft 311 kts 275°
2026-04-25 19:17 31.53698 -105.26789 11814 ft 309 kts 275°
2026-04-25 19:17 31.53946 -105.29292 11829 ft 310 kts 275°
2026-04-25 19:17 31.54192 -105.31805 11832 ft 311 kts 275°
2026-04-25 19:18 31.54437 -105.34322 11833 ft 311 kts 275°
2026-04-25 19:18 31.54685 -105.36841 11833 ft 311 kts 275°
2026-04-25 19:18 31.54934 -105.39352 11831 ft 310 kts 275°
2026-04-25 19:18 31.55183 -105.41859 11826 ft 310 kts 275°
2026-04-25 19:19 31.55431 -105.44366 11827 ft 310 kts 275°
2026-04-25 19:19 31.55677 -105.46874 11828 ft 310 kts 275°
2026-04-25 19:19 31.55924 -105.49391 11828 ft 310 kts 275°
2026-04-25 19:19 31.56086 -105.51051 11830 ft 310 kts 275°
2026-04-25 19:20 31.56410 -105.54386 11830 ft 310 kts 275°
2026-04-25 19:20 31.56652 -105.56898 11829 ft 310 kts 275°
2026-04-25 19:20 31.56894 -105.59414 11828 ft 311 kts 275°
2026-04-25 19:20 31.57137 -105.61935 11825 ft 311 kts 275°
2026-04-25 19:21 31.57379 -105.64455 11825 ft 311 kts 275°
2026-04-25 19:21 31.57856 -105.69480 11823 ft 310 kts 275°
2026-04-25 19:21 31.58096 -105.71989 11823 ft 310 kts 275°
2026-04-25 19:22 31.58338 -105.74502 11819 ft 310 kts 275°
2026-04-25 19:22 31.58582 -105.77015 11819 ft 310 kts 275°
2026-04-25 19:22 31.59771 -105.81746 11652 ft 301 kts 296°
2026-04-25 19:23 31.60825 -105.83834 11411 ft 294 kts 297°
2026-04-25 19:23 31.62844 -105.87842 10932 ft 286 kts 297°
2026-04-25 19:23 31.63848 -105.89850 10695 ft 285 kts 297°
2026-04-25 19:24 31.64842 -105.91837 10455 ft 279 kts 297°
2026-04-25 19:24 31.65804 -105.93760 10325 ft 268 kts 297°
2026-04-25 19:24 31.67617 -105.97390 10099 ft 248 kts 297°
2026-04-25 19:25 31.69303 -106.00760 9787 ft 234 kts 297°
2026-04-25 19:25 31.70133 -106.02431 9186 ft 239 kts 296°
2026-04-25 19:25 31.70967 -106.04120 8548 ft 239 kts 297°
2026-04-25 19:26 31.71794 -106.05790 8140 ft 231 kts 297°
2026-04-25 19:26 31.72581 -106.07367 7966 ft 225 kts 297°
2026-04-25 19:26 31.73376 -106.08940 7863 ft 224 kts 300°
2026-04-25 19:26 31.74327 -106.10391 7739 ft 224 kts 306°
2026-04-25 19:27 31.75336 -106.11786 7598 ft 224 kts 307°
2026-04-25 19:27 31.76023 -106.12724 7507 ft 224 kts 307°
2026-04-25 19:27 31.77370 -106.14555 7337 ft 223 kts 307°
2026-04-25 19:27 31.78481 -106.15832 7201 ft 227 kts 324°
2026-04-25 19:28 31.79930 -106.16601 7072 ft 227 kts 335°
2026-04-25 19:28 31.81405 -106.17187 6918 ft 221 kts 337°
2026-04-25 19:28 31.82845 -106.17727 6799 ft 213 kts 337°
2026-04-25 19:28 31.84244 -106.18240 6636 ft 209 kts 337°
2026-04-25 19:29 31.85624 -106.18752 6383 ft 208 kts 338°
2026-04-25 19:29 31.87004 -106.19267 6111 ft 208 kts 337°
2026-04-25 19:29 31.88386 -106.19786 5969 ft 210 kts 337°
2026-04-25 19:29 31.89776 -106.20301 5959 ft 210 kts 337°
2026-04-25 19:30 31.91081 -106.20971 5960 ft 204 kts 316°
2026-04-25 19:30 31.91840 -106.22291 5965 ft 192 kts 285°
2026-04-25 19:30 31.92079 -106.23805 5970 ft 187 kts 265°
2026-04-25 19:30 31.91514 -106.25116 5981 ft 188 kts 218°
2026-04-25 19:31 31.90352 -106.25827 5999 ft 185 kts 214°
2026-04-25 19:31 31.89500 -106.26876 6029 ft 179 kts 239°
2026-04-25 19:31 31.88740 -106.28025 5881 ft 171 kts 232°
2026-04-25 19:31 31.87998 -106.29037 5694 ft 157 kts 232°
2026-04-25 19:32 31.87297 -106.30007 5515 ft 154 kts 234°
2026-04-25 19:32 31.86612 -106.30962 5326 ft 151 kts 233°
2026-04-25 19:32 31.85962 -106.31868 5140 ft 142 kts 234°
2026-04-25 19:32 31.85748 -106.32167 5090 ft 140 kts 233°
2026-04-25 19:33 31.84702 -106.33571 4808 ft 135 kts 238°
2026-04-25 19:33 31.84098 -106.34434 4608 ft 140 kts 237°
2026-04-25 19:33 31.83481 -106.35318 4437 ft 142 kts 238°
2026-04-25 19:33 31.82842 -106.36223 4182 ft 145 kts 239°
2026-04-25 19:34 31.82219 -106.37108 3966 ft 137 kts 238°
2026-04-25 19:34 31.81671 -106.37878 3948 ft 104 kts 230°
2026-04-25 19:34 31.81303 -106.38389 3948 ft 63 kts 230°
2026-04-25 19:34 31.81077 -106.38704 3950 ft 42 kts 230°
2026-04-25 19:35 31.80899 -106.38951 3949 ft 37 kts 230°
2026-04-25 19:35 31.80748 -106.39085 3947 ft 26 kts 201°
2026-04-25 19:35 31.80592 -106.39152 3947 ft 14 kts 200°
2026-04-25 19:35 31.80546 -106.39171 3947 ft 6 kts 200°
2026-04-25 19:36 31.80507 -106.39188 3947 ft 5 kts 200°
2026-04-25 19:36 31.80450 -106.39212 3947 ft 14 kts 200°
2026-04-25 19:36 31.80350 -106.39254 3947 ft 16 kts 200°
2026-04-25 19:36 31.80241 -106.39299 3947 ft 16 kts 190°
2026-04-25 19:37 31.80149 -106.39233 3947 ft 15 kts 134°
2026-04-25 19:37 31.80083 -106.39153 3947 ft 12 kts 134°
2026-04-25 19:37 31.80026 -106.39086 3947 ft 11 kts 134°
2026-04-25 19:37 31.79975 -106.39021 3947 ft 10 kts 134°
2026-04-25 19:38 31.79928 -106.38965 3947 ft 9 kts 132°
2026-04-25 19:38 31.79945 -106.38918 3947 ft 7 kts 43°
2026-04-25 19:38 31.79975 -106.38885 3947 ft 5 kts 43°
2026-04-25 19:38 31.79989 -106.38848 3947 ft 8 kts 88°
2026-04-25 19:39 31.79990 -106.38738 3947 ft 15 kts 89°
2026-04-25 19:39 31.79990 -106.38625 3947 ft 13 kts 89°
2026-04-25 19:39 31.79991 -106.38521 3947 ft 13 kts 89°
2026-04-25 19:39 31.79992 -106.38411 3947 ft 14 kts 89°
2026-04-25 19:40 31.79992 -106.38300 3947 ft 13 kts 90°
2026-04-25 19:40 31.79993 -106.38198 3947 ft 12 kts 89°
2026-04-25 19:40 31.79994 -106.38100 3947 ft 11 kts 89°
2026-04-25 19:40 31.79994 -106.38014 3947 ft 10 kts 91°
2026-04-25 19:41 31.79993 -106.37934 3947 ft 10 kts 90°
2026-04-25 19:41 31.79990 -106.37847 3947 ft 11 kts 93°
2026-04-25 19:41 31.79979 -106.37767 3947 ft 9 kts 122°
2026-04-25 19:41 31.79962 -106.37756 3947 ft 9 kts 167°
2026-04-25 19:42 31.79874 -106.37764 3947 ft 6 kts 198°
2026-04-25 19:42 31.79837 -106.37793 3947 ft 7 kts 223°
2026-04-25 19:42 31.79802 -106.37788 3947 ft 5 kts 131°
2026-04-25 19:42 31.79770 -106.37775 3947 ft 5 kts 182°
2026-04-25 19:43 31.79745 -106.37786 3947 ft 3 kts 208°
2026-04-25 19:43 31.79726 -106.37807 3947 ft 5 kts 225°
2026-04-25 19:43 31.79696 -106.37843 3947 ft 7 kts 225°
2026-04-25 19:43 31.79654 -106.37892 3947 ft 10 kts 225°
2026-04-25 19:44 31.79605 -106.37950 3947 ft 9 kts 225°
2026-04-25 19:44 31.79575 -106.37959 3947 ft 3 kts 133°
2026-04-25 19:44 31.79583 -106.37936 3947 ft 4 kts 36°
2026-04-25 19:44 31.79596 -106.37935 3947 ft 0 kts